Regional Weather Roundup
Issued by NWS Cleveland, OH

Home | Current Version | Previous Version | Graphics & Text | Print | Product List | Glossary On
Versions: 1 2 3 4 5 6 7 8 9 10 11 12 13 14 15 16 17 18 19 20 21 22 23 24 25 26 27 28 29 30 31 32 33 34 35 36 37 38 39 40 41 42 43 44 45 46 47 48 49 50
380
ASUS41 KCLE 240800
RWRCLE
OHIO REGIONAL WEATHER ROUNDUP
NATIONAL WEATHER SERVICE WILMINGTON, OH
400 AM EDT TUE APR 24 2018

NOTE: "FAIR" INDICATES FEW OR NO CLOUDS BELOW 12,000 FEET WITH NO
SIGNIFICANT WEATHER AND/OR OBSTRUCTIONS TO VISIBILITY.

OHZ001>008-015>018-024>027-034-035-043-044-240900-
   NORTHWEST OHIO

CITY           SKY/WX    TMP DP  RH WIND       PRES   REMARKS
DEFIANCE       CLOUDY    51  49  92 CALM      30.09F
FINDLAY        CLOUDY    56  45  66 SE10      30.07F
TOLEDO EXPRESS CLOUDY    56  46  69 E7        30.10F
TOLEDO EXEC    CLOUDY    55  44  66 NE9       30.11F
LIMA           CLOUDY    52  48  86 E8        30.06S
$$

OHZ009>014-019>023-028>033-038-089-240900-
   NORTHEAST OHIO

CITY           SKY/WX    TMP DP  RH WIND       PRES   REMARKS
CLE-HOPKINS    CLOUDY    57  43  59 E8        30.16F
CLE-LAKEFRONT  CLOUDY    50  44  80 NE6       30.14S
CUY CO. ARPT   NOT AVBL
LORAIN-ELYRIA  CLOUDY    53  41  63 E12       30.13F
ASHTABULA      CLOUDY    53  47  79 E7        30.19R
AKRON-CANTON   CLOUDY    56  41  57 E10       30.14F
WOOSTER        NOT AVBL
MANSFIELD      CLOUDY    54  43  66 E10       30.10F
YOUNGSTOWN     LGT RAIN  55  46  71 SE9       30.18R
$$

OHZ042-051>053-060>062-070>072-077>081-240900-
  SOUTHWEST OHIO

CITY           SKY/WX    TMP DP  RH WIND       PRES   REMARKS
CINC-COVINGTON LGT RAIN  52  49  89 NE9       29.98F
CINC-LUNKEN    CLOUDY    52  51  97 CALM      30.00F
HAMILTON       LGT RAIN  52  49  89 NE5       30.01F
DAYTON         NOT AVBL
WRIGHT-PAT AFB NOT AVBL
DAYTON GENERAL LGT RAIN  52  48  86 E7        30.00F
WILMINGTON     CLOUDY    51  49  92 E10       30.01S
$$

OHZ036-037-039>041-045>050-054>059-063>069-073>076-082>088-240900-
  CENTRAL AND SOUTHEAST OHIO

CITY           SKY/WX    TMP DP  RH WIND       PRES   REMARKS
COLUMBUS       LGT RAIN  54  48  80 E12       30.06F
OSU AIRPORT    CLOUDY    53  48  83 E10       30.06F
BOLTON FIELD   CLOUDY    53  48  86 E13       30.06S
RICKENBACK AFB NOT AVBL
NEWARK         LGT RAIN  54  48  80 E9        30.08F
MARION         CLOUDY    53  47  79 SE10      30.08F
LANCASTER      CLOUDY    52  48  86 SE7       30.07F
ZANESVILLE     CLOUDY    55  47  74 E9        30.10F
NEW PHILLY     CLOUDY    57  45  64 E13       30.13F
$$




USA.gov is the U.S. government's official web portal to all federal, state and local government web resources and services.